Weather History for Francistown, Botswana

Change the Weather History Date:

Friday, January 18, 2013

  Actual Average Record
Temperature  
Mean Temperature 76 °F -  
Max Temperature 85 °F 84 °F 95 °F (1998)
Min Temperature 66 °F 65 °F 60 °F (2000)
Cooling Degree Days 10    
Growing Degree Days 26 (Base 50)    
Moisture  
Dew Point 69 °F    
Average Humidity 83    
Maximum Humidity 100    
Minimum Humidity 57    
Precipitation  
Precipitation 0.00 in - - ()
Sea Level Pressure  
Sea Level Pressure 29.97 in    
Wind  
Wind Speed 4 mph ()    
Max Wind Speed 12 mph    
Max Gust Speed -    
Visibility 6.2 miles    
Events Rain , Thunderstorm    
Averages and records for this station are not official NWS values.
T = Trace of Precipitation, MM = Missing Value Source: Averaged Metar Reports

Daily Weather History Graph

Daily Weather History Graph

Search for Another Location

Airport:

Trip Planner

Search our weather history database for the weather conditions in past years. The results will help you decide how hot, cold, wet, or windy it might be!

Date:

Astronomy

Jan. 18, 2013 Rise Set
Actual Time 5:43 AM CAT 6:57 PM CAT
Civil Twilight 5:19 AM CAT 7:21 PM CAT
Nautical Twilight 4:50 AM CAT 7:50 PM CAT
Astronomical Twilight 4:20 AM CAT 8:19 PM CAT
Moon 11:53 AM CAT (1/18) 11:36 PM CAT (1/18)
Length of Visible Light 14h 02m
Length of Day
13h 14m
Waxing Crescent, 44% of the Moon is Illuminated
Jan 18
Waxing Crescent
Jan 19
First Quarter
Jan 27
Full
Feb 3
Last Quarter
Feb 10
New

Hourly Weather History & Observations

Time (CAT) Temp. Heat Index Dew Point Humidity Pressure Visibility Wind Dir Wind Speed Gust Speed Precip Events Conditions
12:00 AM 68.0 °F - 66.2 °F 94% 30.04 in 6.2 mi East 3.5 mph - N/A   Scattered Clouds
1:00 AM 68.0 °F - 66.2 °F 94% 30.01 in 6.2 mi NE 2.3 mph - N/A   Scattered Clouds
3:00 AM 66.2 °F - 66.2 °F 100% 29.98 in 6.2 mi NNE 2.3 mph - N/A   Scattered Clouds
4:00 AM 66.2 °F - 66.2 °F 100% 29.98 in 6.2 mi NW 2.3 mph - N/A   Scattered Clouds
5:00 AM 66.2 °F - 64.4 °F 94% 30.01 in 6.2 mi ESE 2.3 mph - N/A   Scattered Clouds
6:00 AM 68.0 °F - 68.0 °F 100% 30.01 in 6.2 mi Variable 1.2 mph - N/A   Light Drizzle
7:00 AM 69.8 °F - 68.0 °F 94% 30.01 in 6.2 mi Variable 1.2 mph - N/A   Mostly Cloudy
8:00 AM 73.4 °F - 69.8 °F 88% 30.04 in 6.2 mi NNE 8.1 mph - N/A   Mostly Cloudy
9:00 AM 75.2 °F - 68.0 °F 78% 30.04 in 6.2 mi NNE 5.8 mph - N/A   Mostly Cloudy
10:00 AM 75.2 °F - 66.2 °F 73% 30.04 in 6.2 mi NNE 8.1 mph - N/A   Mostly Cloudy
11:00 AM 77.0 °F - 69.8 °F 78% 30.01 in 6.2 mi ENE 5.8 mph - N/A   Mostly Cloudy
12:00 PM 78.8 °F - 68.0 °F 69% 30.01 in 6.2 mi NW 5.8 mph - N/A   Scattered Clouds
1:00 PM 82.4 °F 85.4 °F 68.0 °F 62% 29.98 in 6.2 mi NNE 8.1 mph - N/A   Scattered Clouds
2:00 PM 82 °F - 69 °F 57%  in 6 mi NNW 4.6 mph - -   Overcast
2:00 PM 82.4 °F 86.3 °F 69.8 °F 66% 29.92 in 6.2 mi NNW 4.6 mph - N/A   Partly Cloudy
3:00 PM 84.2 °F 88.4 °F 69.8 °F 62% 29.89 in 6.2 mi NW 11.5 mph - N/A   Partly Cloudy
4:00 PM 86.0 °F 90.4 °F 69.8 °F 58% 29.86 in 6.2 mi NW 4.6 mph - N/A   Partly Cloudy
5:00 PM 80.6 °F 83.9 °F 69.8 °F 70% 29.89 in 6.2 mi WSW 5.8 mph - N/A Thunderstorm Thunderstorm
6:00 PM 73.4 °F - 69.8 °F 88% 29.92 in 6.2 mi SE 6.9 mph - N/A   Scattered Clouds
7:00 PM 73.4 °F - 71.6 °F 94% 29.95 in 6.2 mi East 3.5 mph - N/A Rain Light Rain
8:00 PM 73 °F - 71 °F 92%  in 6 mi SE 9.2 mph - - Rain Light Rain
8:00 PM 73.4 °F - 71.6 °F 94% 29.92 in 6.2 mi SE 5.8 mph - N/A Rain Light Rain
9:00 PM 73.4 °F - 69.8 °F 88% 29.95 in 6.2 mi East 3.5 mph - N/A   Mostly Cloudy
10:00 PM 71.6 °F - 69.8 °F 94% 29.95 in 6.2 mi ENE 5.8 mph - N/A   Mostly Cloudy
11:00 PM 71.6 °F - 69.8 °F 94% 29.98 in 6.2 mi ENE 6.9 mph - N/A   Mostly Cloudy